User: anonymous   Login
Location: Unspecified
(0.0000°N, 0.0000°E)
Time: 21:24:10
(UTC+02:00)
Language:

Cosmos 1315 Rocket - Orbit

View from above orbital plane
View from above orbital plane
View from above satellite
View from above satellite

Ground track
Ground track

The orbit data is extracted from the following two-line orbital elements,

1 12904U 81103B   15238.87956442  .00001257  00000-0  87626-4 0  9991
2 12904 081.1787 309.2621 0029972 077.5256 282.9316 15.04345696393519
Epoch (UTC): 26 August 2015 21:06:34
Eccentricity: 0.0029972
inclination: 81.1787°
perigee height: 533 km
apogee height: 574 km
right ascension of ascending node: 309.2621°
argument of perigee: 77.5256°
revolutions per day: 15.04345696
mean anomaly at epoch: 282.9316°
orbit number at epoch: 39351

The dashed part of the orbit path shows where the satellite is in the earth's shadow,  

DLR